Weather History for KSAT - November, 2012

Change the Weather History Date:

Wednesday, November 21, 2012

  Actual Average Record
Temperature  
Mean Temperature 66 °F 59 °F  
Max Temperature 77 °F 70 °F 88 °F (2007)
Min Temperature 54 °F 48 °F 26 °F (1906)
Degree Days  
Heating Degree Days 0 7  
Month to date heating degree days 71 100  
Since 1 July heating degree days 126 133  
Cooling Degree Days 1 1  
Month to date cooling degree days 70 53  
Year to date cooling degree days 3551 3108  
Growing Degree Days 16 (Base 50)    
Moisture  
Dew Point 55 °F    
Average Humidity 72    
Maximum Humidity 100    
Minimum Humidity 43    
Precipitation  
Precipitation 0.00 in 0.06 in 1.39 in (1912)
Month to date precipitation 0.03 1.72  
Year to date precipitation 38.79 29.80  
Snow  
Snow 0.00 in - - ()
Month to date snowfall 0.0  
Since 1 July snowfall 0.0  
Since 1 September snowfall 0.0  
Snow Depth 0.00 in    
Sea Level Pressure  
Sea Level Pressure 30.17 in    
Wind  
Wind Speed 4 mph (South)    
Max Wind Speed 12 mph    
Max Gust Speed 14 mph    
Visibility 10 miles    
Events      
T = Trace of Precipitation, MM = Missing Value Source: NWS Daily Summary

Daily Weather History Graph

Daily Weather History Graph

Search for Another Location

Airport or City:

Trip Planner

Search our weather history database for the weather conditions in past years. The results will help you decide how hot, cold, wet, or windy it might be!

Date:

Astronomy

Nov. 21, 2012 Rise Set
Actual Time 7:03 AM CST 5:36 PM CST
Civil Twilight 6:37 AM CST 6:01 PM CST
Nautical Twilight 6:08 AM CST 6:30 PM CST
Astronomical Twilight 5:40 AM CST 6:59 PM CST
Moon 1:28 PM CST (11/21) 12:51 AM CST (11/21)
Length of Visible Light 11h 23m
Length of Day
10h 32m
First Quarter, 62% of the Moon is Illuminated
Nov 21
First Quarter
Nov 28
Full
Dec 6
Last Quarter
Dec 13
New
Dec 19
First Quarter

Hourly Weather History & Observations

Time (CST) Temp. Dew Point Humidity Pressure Visibility Wind Dir Wind Speed Gust Speed Precip Events Conditions
12:53 AM 62.1 °F 57.0 °F 84% 30.16 in 10.0 mi Calm Calm - N/A   Scattered Clouds
1:53 AM 59.0 °F 55.9 °F 90% 30.17 in 10.0 mi Calm Calm - N/A   Scattered Clouds
2:53 AM 55.9 °F 55.0 °F 97% 30.17 in 10.0 mi WNW 3.5 mph - N/A   Scattered Clouds
3:53 AM 55.9 °F 55.0 °F 97% 30.17 in 10.0 mi Calm Calm - N/A   Partly Cloudy
4:53 AM 55.0 °F 54.0 °F 96% 30.18 in 10.0 mi WNW 5.8 mph - N/A   Scattered Clouds
5:53 AM 55.0 °F 54.0 °F 96% 30.18 in 10.0 mi WNW 4.6 mph - N/A   Scattered Clouds
6:53 AM 55.0 °F 54.0 °F 96% 30.20 in 10.0 mi WNW 5.8 mph - N/A   Scattered Clouds
7:53 AM 57.0 °F 55.0 °F 93% 30.22 in 10.0 mi WNW 3.5 mph - N/A   Mostly Cloudy
8:53 AM 62.1 °F 57.9 °F 86% 30.23 in 10.0 mi Calm Calm - N/A   Overcast
9:53 AM 66.9 °F 59.0 °F 76% 30.24 in 10.0 mi Calm Calm - N/A   Overcast
10:53 AM 70.0 °F 57.9 °F 65% 30.24 in 10.0 mi SSW 5.8 mph - N/A   Overcast
11:53 AM 72.0 °F 57.9 °F 61% 30.21 in 10.0 mi Variable 3.5 mph - N/A   Mostly Cloudy
12:53 PM 73.9 °F 59.0 °F 59% 30.18 in 10.0 mi South 4.6 mph - N/A   Mostly Cloudy
1:53 PM 75.9 °F 57.9 °F 54% 30.15 in 10.0 mi SE 8.1 mph - N/A   Scattered Clouds
2:53 PM 75.0 °F 54.0 °F 48% 30.14 in 10.0 mi SE 3.5 mph - N/A   Mostly Cloudy
3:53 PM 75.9 °F 52.0 °F 43% 30.13 in 10.0 mi ESE 10.4 mph - N/A   Scattered Clouds
4:53 PM 73.0 °F 52.0 °F 48% 30.13 in 10.0 mi SE 6.9 mph - N/A   Scattered Clouds
5:53 PM 69.1 °F 52.0 °F 54% 30.14 in 10.0 mi SE 5.8 mph - N/A   Mostly Cloudy
6:53 PM 64.9 °F 53.1 °F 65% 30.15 in 10.0 mi ESE 4.6 mph - N/A   Scattered Clouds
7:53 PM 64.0 °F 54.0 °F 70% 30.16 in 10.0 mi Calm Calm - N/A   Scattered Clouds
8:53 PM 64.0 °F 53.1 °F 67% 30.16 in 10.0 mi Calm Calm - N/A   Scattered Clouds
9:53 PM 62.1 °F 52.0 °F 70% 30.15 in 10.0 mi SE 3.5 mph - N/A   Mostly Cloudy
10:53 PM 62.1 °F 54.0 °F 75% 30.15 in 10.0 mi South 6.9 mph - N/A   Scattered Clouds
11:53 PM 59.0 °F 54.0 °F 83% 30.13 in 10.0 mi SSE 4.6 mph - N/A   Mostly Cloudy